Regional Weather Roundup
Issued by NWS

Home | Current Version | Previous Version | Text Only | Print | Product List | Glossary On
Versions: 1 2 3 4 5 6 7 8 9 10 11 12 13 14 15 16 17 18 19 20 21 22 23 24 25 26 27 28 29 30 31 32 33 34 35 36 37 38 39 40 41 42 43 44 45 46 47 48 49 50
000
ASUS43 KBIS 240902
RWRND

NORTH DAKOTA REGIONAL WEATHER ROUNDUP
NATIONAL WEATHER SERVICE BISMARCK ND
400 AM CDT FRI MAR 24 2017

NOTE: "FAIR" INDICATES FEW OR NO CLOUDS BELOW 12,000 FEET WITH NO
SIGNIFICANT WEATHER AND/OR OBSTRUCTIONS TO VISIBILITY.


NDZ001>003-009>011-017-241000-
NORTHWEST NORTH DAKOTA

CITY           SKY/WX    TMP DP  RH WIND       PRES   REMARKS
WILLISTON      FAIR      28  26  92 N5        30.02R
MINOT          FAIR      27  24  89 NW5       30.02R
MINOT AFB      CLOUDY    29  26  86 N3        30.02R
$$

NDZ018>021-031>035-040>046-241000-
SOUTHWEST NORTH DAKOTA

CITY           SKY/WX    TMP DP  RH WIND       PRES   REMARKS
BISMARCK       FAIR      31  29  92 NW3       30.00R FOG
DICKINSON      FAIR      31  30  96 NE8       29.97R
GARRISON         N/A     30  27  88 SE3       30.02R
HETTINGER ARPT CLEAR     36  34  92 CALM      29.99R
$$

NDZ004>008-012>016-024-026-027-054-241000-
NORTHEAST NORTH DAKOTA

CITY           SKY/WX    TMP DP  RH WIND       PRES   REMARKS
GRAND FORKS    CLOUDY    33  32  96 N12       29.97R
GRND FRKS AFB  PTCLDY    32  32  99 N13       29.98R
DEVILS LAKE    FAIR      29  27  92 N10       30.00S WCI  20
$$

NDZ022-023-025-028>030-036>039-047>053-241000-
SOUTHEAST NORTH DAKOTA

CITY           SKY/WX    TMP DP  RH WIND       PRES   REMARKS
FARGO          CLOUDY    34  34 100 N5        29.92F FOG
JAMESTOWN      FAIR      32  31  96 N10       29.94R
$$





USA.gov is the U.S. government's official web portal to all federal, state and local government web resources and services.